GW0353 Weather Reports


Display with metric or nautical units.
time (UTC)temp
F
wind
direction
speed
MPH
gust
MPH
rain 1hr
in
rain 24hr
in
rain mn
in
humidity
%
barometer
mb
20260507031058 57 197 1.0 2.0 0.00 0.00 0.00 37 1025.0
20260507030557 57 200 0.0 2.0 0.00 0.00 0.00 37 1024.9
20260507030105 58 168 0.0 2.0 0.00 0.00 0.00 36 1024.9
20260507025557 59 0 0.0 2.0 0.00 0.00 0.00 34 1024.8
20260507025058 60 0 0.0 1.0 0.00 0.00 0.00 33 1024.7
20260507024559 61 0 0.0 5.0 0.00 0.00 0.00 31 1024.8
20260507024057 61 0 0.0 5.0 0.00 0.00 0.00 30 1024.5
20260507023558 62 103 0.0 4.0 0.00 0.00 0.00 30 1024.5
20260507023059 62 0 2.0 4.0 0.00 0.00 0.00 29 1024.5
20260507022559 62 62 1.0 6.0 0.00 0.00 0.00 30 1024.4
20260507022059 62 49 2.0 6.0 0.00 0.00 0.00 30 1024.4
20260507021627 63 261 3.0 6.0 0.00 0.00 0.00 30 1024.4
20260507021058 63 57 2.0 6.0 0.00 0.00 0.00 29 1024.2
20260507020558 63 53 3.0 8.0 0.00 0.00 0.00 28 1024.3
20260507020112 64 37 3.0 8.0 0.00 0.00 0.00 28 1024.3
20260507015603 64 0 0.0 3.0 0.00 0.00 0.00 29 1024.3
20260507015058 64 0 1.0 3.0 0.00 0.00 0.00 27 1024.4
20260507014623 64 0 0.0 5.0 0.00 0.00 0.00 26 1024.4
20260507014058 65 0 2.0 9.0 0.00 0.00 0.00 26 1024.4
20260507013557 65 75 3.0 9.0 0.00 0.00 0.00 26 1024.4
20260507013101 66 37 1.0 6.0 0.00 0.00 0.00 25 1024.4
20260507012557 67 61 2.0 6.0 0.00 0.00 0.00 25 1024.4
20260507012058 66 276 1.0 6.0 0.00 0.00 0.00 27 1024.5
20260507011600 66 28 2.0 8.0 0.00 0.00 0.00 24 1024.5
20260507011057 66 0 0.0 8.0 0.00 0.00 0.00 26 1024.5
20260507010557 67 52 3.0 7.0 0.00 0.00 0.00 24 1024.4
20260507010058 68 345 1.0 4.0 0.00 0.00 0.00 24 1024.3
20260507005558 68 24 1.0 4.0 0.00 0.00 0.00 24 1024.4
20260507005057 68 313 0.0 4.0 0.00 0.00 0.00 24 1024.4
20260507004558 68 314 0.0 3.0 0.00 0.00 0.00 26 1024.3
20260507004057 68 295 1.0 4.0 0.00 0.00 0.00 23 1024.2
20260507003557 67 0 0.0 9.0 0.00 0.00 0.00 24 1024.2
20260507003058 67 358 0.0 14.0 0.00 0.00 0.00 26 1024.2
20260507002557 66 266 5.0 14.0 0.00 0.00 0.00 24 1024.2
20260507002057 67 54 5.0 14.0 0.00 0.00 0.00 22 1024.2
20260507001606 68 4 1.0 5.0 0.00 0.00 0.00 22 1024.1
20260507001057 68 0 3.0 5.0 0.00 0.00 0.00 23 1024.1
20260507000600 69 326 2.0 12.0 0.00 0.00 0.00 22 1024.1
20260507000123 68 317 6.0 12.0 0.00 0.00 0.00 23 1023.8
20260506235557 68 345 3.0 16.0 0.00 0.00 0.00 22 1023.9
20260506235100 67 57 7.0 16.0 0.00 0.00 0.00 24 1024.1
20260506234618 67 46 2.0 13.0 0.00 0.00 0.00 23 1024.1
20260506234058 67 328 0.0 13.0 0.00 0.00 0.00 23 1024.0
20260506233601 67 59 6.0 13.0 0.00 0.00 0.00 22 1024.1
20260506233059 67 167 3.0 11.0 0.00 0.00 0.00 23 1024.1
20260506232557 66 0 4.0 13.0 0.00 0.00 0.00 22 1024.0
20260506232057 66 307 6.0 16.0 0.00 0.00 0.00 23 1024.0
20260506231556 67 98 7.0 16.0 0.00 0.00 0.00 22 1024.2
20260506231057 68 63 6.0 14.0 0.00 0.00 0.00 21 1023.9
20260506230558 68 52 3.0 9.0 0.00 0.00 0.00 23 1024.1
20260506230103 69 317 1.0 6.0 0.00 0.00 0.00 25 1024.0
20260506225557 69 0 1.0 6.0 0.00 0.00 0.00 25 1024.0
20260506225057 69 49 2.0 6.0 0.00 0.00 0.00 25 1024.1
20260506224556 69 70 2.0 5.0 0.00 0.00 0.00 27 1024.1
20260506224056 69 304 1.0 5.0 0.00 0.00 0.00 25 1024.0
20260506223559 70 39 2.0 5.0 0.00 0.00 0.00 25 1024.2
20260506223100 70 113 1.0 4.0 0.00 0.00 0.00 27 1024.2
20260506222559 70 0 1.0 4.0 0.00 0.00 0.00 25 1024.3
20260506222059 70 216 0.0 4.0 0.00 0.00 0.00 27 1024.4
20260506221603 70 321 1.0 6.0 0.00 0.00 0.00 28 1024.6
20260506221058 70 326 1.0 6.0 0.00 0.00 0.00 27 1024.5
20260506220558 71 1 1.0 4.0 0.00 0.00 0.00 26 1024.8
20260506220059 71 214 0.0 4.0 0.00 0.00 0.00 26 1024.8
20260506215558 71 309 1.0 4.0 0.00 0.00 0.00 27 1024.7
20260506215058 71 0 1.0 3.0 0.00 0.00 0.00 28 1024.9
20260506214602 71 224 0.0 4.0 0.00 0.00 0.00 28 1025.0
20260506214058 70 240 0.0 8.0 0.00 0.00 0.00 30 1025.0
20260506213601 68 0 1.0 8.0 0.00 0.00 0.00 29 1025.0
20260506213103 67 9 2.0 9.0 0.00 0.00 0.00 29 1024.9
20260506212559 67 83 2.0 9.0 0.00 0.00 0.00 30 1025.1
20260506212059 69 53 2.0 7.0 0.00 0.00 0.00 29 1024.9
20260506211603 68 255 3.0 7.0 0.00 0.00 0.00 30 1025.1
20260506211104 68 49 1.0 5.0 0.00 0.00 0.00 30 1024.9
20260506210559 69 70 2.0 5.0 0.00 0.00 0.00 30 1025.1
20260506205558 70 117 1.0 6.0 0.00 0.00 0.00 29 1025.1
20260506205058 69 321 1.0 6.0 0.00 0.00 0.00 30 1025.1
20260506204600 69 20 0.0 5.0 0.00 0.00 0.00 29 1025.1
20260506204058 70 313 1.0 5.0 0.00 0.00 0.00 29 1025.0
20260506203558 70 359 2.0 5.0 0.00 0.00 0.00 28 1025.1
20260506203106 70 273 1.0 6.0 0.00 0.00 0.00 29 1025.0
20260506202600 70 295 1.0 6.0 0.00 0.00 0.00 29 1025.1
20260506202058 70 307 2.0 6.0 0.00 0.00 0.00 29 1025.0
20260506201558 70 264 1.0 3.0 0.00 0.00 0.00 30 1025.0
20260506201057 69 183 1.0 3.0 0.00 0.00 0.00 29 1025.1
20260506200558 68 311 0.0 6.0 0.00 0.00 0.00 30 1025.1
20260506200111 67 26 3.0 8.0 0.00 0.00 0.00 31 1025.2
20260506195559 67 41 1.0 8.0 0.00 0.00 0.00 32 1025.2
20260506195059 67 328 3.0 8.0 0.00 0.00 0.00 33 1025.5
20260506194556 67 117 0.0 4.0 0.00 0.00 0.00 34 1025.4
20260506194059 68 282 1.0 4.0 0.00 0.00 0.00 31 1025.3
20260506193557 68 251 0.0 5.0 0.00 0.00 0.00 31 1025.5
20260506193100 68 266 0.0 5.0 0.00 0.00 0.00 30 1025.3
20260506192559 67 305 0.0 5.0 0.00 0.00 0.00 31 1025.5
20260506192058 67 0 1.0 5.0 0.00 0.00 0.00 31 1025.6
20260506191606 67 72 2.0 5.0 0.00 0.00 0.00 30 1025.6
20260506191059 68 321 2.0 4.0 0.00 0.00 0.00 30 1025.5
20260506190558 67 89 0.0 4.0 0.00 0.00 0.00 31 1025.5
20260506190059 67 287 1.0 5.0 0.00 0.00 0.00 31 1025.6
20260506185602 66 234 0.0 5.0 0.00 0.00 0.00 34 1025.5
20260506185059 66 165 2.0 7.0 0.00 0.00 0.00 33 1025.6
20260506184604 65 295 2.0 7.0 0.00 0.00 0.00 33 1025.6
20260506184059 65 287 3.0 7.0 0.00 0.00 0.00 32 1025.5
20260506183559 64 44 0.0 6.0 0.00 0.00 0.00 35 1025.7
20260506183104 64 48 3.0 6.0 0.00 0.00 0.00 34 1025.7
20260506182558 65 45 0.0 4.0 0.00 0.00 0.00 35 1025.6
20260506182058 65 10 1.0 4.0 0.00 0.00 0.00 35 1025.7
20260506181607 65 288 1.0 6.0 0.00 0.00 0.00 34 1025.5
20260506181059 65 282 1.0 6.0 0.00 0.00 0.00 34 1025.6
20260506180559 65 255 1.0 6.0 0.00 0.00 0.00 36 1025.6
20260506180059 65 322 0.0 4.0 0.00 0.00 0.00 33 1025.6
20260506175558 65 27 1.0 4.0 0.00 0.00 0.00 35 1025.6
20260506175058 65 292 1.0 4.0 0.00 0.00 0.00 35 1025.6
20260506174557 65 313 1.0 5.0 0.00 0.00 0.00 35 1025.5
20260506174058 64 0 2.0 5.0 0.00 0.00 0.00 37 1025.5
20260506173558 62 72 2.0 6.0 0.00 0.00 0.00 39 1025.5
20260506173126 62 218 3.0 6.0 0.00 0.00 0.00 38 1025.3
20260506172558 62 288 1.0 5.0 0.00 0.00 0.00 38 1025.3
20260506172058 62 298 3.0 5.0 0.00 0.00 0.00 39 1025.3
20260506171604 62 54 3.0 5.0 0.00 0.00 0.00 39 1025.1
20260506171059 63 275 1.0 3.0 0.00 0.00 0.00 39 1025.3
20260506170559 62 66 1.0 4.0 0.00 0.00 0.00 39 1025.3
20260506170109 61 27 1.0 4.0 0.00 0.00 0.00 43 1025.3
20260506165559 61 50 1.0 3.0 0.00 0.01 0.00 48 1025.3
20260506165059 59 0 1.0 3.0 0.00 0.01 0.00 46 1025.3
20260506164559 58 0 0.0 3.0 0.00 0.01 0.00 53 1025.2
20260506164058 57 0 1.0 3.0 0.00 0.01 0.00 54 1025.2
20260506163558 57 308 0.0 2.0 0.00 0.01 0.00 54 1025.1
20260506163100 56 70 0.0 4.0 0.00 0.01 0.00 57 1025.3
20260506162558 54 0 1.0 4.0 0.00 0.01 0.00 59 1025.2
20260506162058 54 49 1.0 4.0 0.00 0.01 0.00 60 1025.3
20260506161559 53 23 1.0 5.0 0.00 0.01 0.00 63 1025.2
20260506161058 52 57 3.0 5.0 0.00 0.01 0.00 62 1025.0
20260506160558 53 9 1.0 3.0 0.00 0.01 0.00 62 1025.0
20260506160059 52 305 0.0 3.0 0.00 0.01 0.00 65 1025.1
20260506155602 51 53 1.0 4.0 0.00 0.05 0.00 64 1025.1
20260506155102 50 0 1.0 4.0 0.00 0.05 0.00 64 1025.1
20260506154613 50 34 2.0 4.0 0.00 0.05 0.00 66 1025.1
20260506154058 50 0 0.0 3.0 0.00 0.05 0.00 68 1025.1
20260506153558 49 45 1.0 3.0 0.00 0.05 0.00 70 1024.9
20260506153059 48 48 1.0 3.0 0.00 0.05 0.00 72 1024.9
20260506152559 47 56 0.0 3.0 0.00 0.05 0.00 74 1025.0
20260506152101 47 88 0.0 3.0 0.00 0.05 0.00 76 1025.0
20260506151558 46 94 1.0 3.0 0.00 0.05 0.00 75 1025.1
20260506151058 46 0 1.0 2.0 0.00 0.05 0.00 79 1025.1
20260506150600 45 46 0.0 2.0 0.00 0.05 0.00 80 1025.1
20260506150057 44 62 1.0 2.0 0.00 0.05 0.00 80 1025.2
20260506145559 44 77 1.0 2.0 0.00 0.10 0.00 79 1024.9
20260506145058 44 70 0.0 2.0 0.00 0.10 0.00 82 1025.1
20260506144607 43 65 1.0 2.0 0.00 0.10 0.00 82 1024.9
20260506144101 43 55 1.0 2.0 0.00 0.10 0.00 83 1024.8
20260506143602 42 0 0.0 1.0 0.00 0.10 0.00 83 1024.8
20260506143058 42 0 0.0 1.0 0.00 0.10 0.00 82 1024.6
20260506142558 42 0 0.0 1.0 0.00 0.10 0.00 84 1024.7
20260506142058 41 0 0.0 1.0 0.00 0.10 0.00 83 1024.7
20260506141602 41 0 0.0 0.0 0.00 0.10 0.00 85 1024.6
20260506141100 40 0 0.0 0.0 0.00 0.10 0.00 86 1024.5
20260506140602 39 0 0.0 0.0 0.00 0.10 0.00 87 1024.4
20260506140058 38 0 0.0 1.0 0.00 0.10 0.00 90 1024.4
20260506135559 36 0 0.0 2.0 0.00 0.11 0.00 92 1024.3
20260506135058 34 0 0.0 2.0 0.00 0.11 0.00 92 1024.2
20260506134556 33 169 0.0 1.0 0.00 0.11 0.00 92 1024.2
20260506134102 33 0 0.0 0.0 0.00 0.11 0.00 92 1024.0
20260506133559 33 0 0.0 0.0 0.00 0.11 0.00 92 1024.0
20260506133126 33 0 0.0 0.0 0.00 0.11 0.00 92 1023.8
20260506132558 33 0 0.0 2.0 0.00 0.11 0.00 92 1023.9
20260506132058 33 0 0.0 2.0 0.00 0.11 0.00 92 1023.8
20260506131558 33 219 0.0 2.0 0.00 0.11 0.00 92 1023.8
20260506131058 33 0 0.0 1.0 0.00 0.11 0.00 92 1023.8
20260506130559 32 0 0.0 1.0 0.00 0.11 0.00 91 1023.7
20260506130122 33 0 0.0 0.0 0.00 0.11 0.00 92 1023.5
20260506125559 33 0 0.0 0.0 0.00 0.11 0.00 91 1023.6
20260506125058 33 0 0.0 1.0 0.00 0.11 0.00 91 1023.4
20260506124559 33 0 0.0 1.0 0.00 0.11 0.00 91 1023.2
20260506124058 33 0 0.0 1.0 0.00 0.11 0.00 91 1023.3
20260506123558 33 0 0.0 1.0 0.00 0.11 0.00 90 1023.1
20260506123057 34 0 0.0 1.0 0.00 0.11 0.00 91 1023.1
20260506122602 34 0 0.0 1.0 0.00 0.11 0.00 91 1023.0
20260506122058 34 0 0.0 1.0 0.00 0.11 0.00 91 1023.1
20260506121559 33 0 0.0 1.0 0.00 0.11 0.00 90 1022.9
20260506121059 34 184 0.0 1.0 0.00 0.11 0.00 89 1022.9
20260506120601 34 0 0.0 0.0 0.00 0.11 0.00 90 1022.9
20260506120058 34 0 0.0 2.0 0.00 0.11 0.00 90 1022.7
20260506115602 34 0 0.0 2.0 0.00 0.11 0.00 90 1022.7
20260506115058 34 188 1.0 2.0 0.00 0.11 0.00 89 1022.6
20260506114605 34 0 0.0 1.0 0.00 0.11 0.00 89 1022.8
20260506114058 34 184 0.0 1.0 0.00 0.11 0.00 88 1022.7
20260506113558 34 0 0.0 1.0 0.00 0.11 0.00 88 1022.6
20260506113058 35 0 0.0 1.0 0.00 0.11 0.00 89 1022.6
20260506112600 35 0 0.0 1.0 0.00 0.11 0.00 88 1022.6
20260506112102 35 0 0.0 4.0 0.00 0.11 0.00 87 1022.6
20260506111556 35 0 1.0 4.0 0.00 0.11 0.00 88 1022.5
20260506111058 35 0 0.0 2.0 0.00 0.11 0.00 89 1022.6
20260506110559 35 188 0.0 2.0 0.00 0.11 0.00 87 1022.6
20260506110100 35 0 0.0 2.0 0.00 0.11 0.00 87 1022.6
20260506105559 36 0 0.0 2.0 0.00 0.11 0.00 87 1022.6
20260506105059 36 197 0.0 1.0 0.00 0.11 0.00 87 1022.4
20260506104635 36 0 0.0 1.0 0.00 0.11 0.00 87 1022.5
20260506104058 36 0 0.0 1.0 0.00 0.11 0.00 87 1022.4
20260506103559 36 171 0.0 2.0 0.00 0.11 0.00 87 1022.5
20260506103103 37 161 1.0 2.0 0.00 0.11 0.00 85 1022.4
20260506102559 37 0 0.0 1.0 0.00 0.11 0.00 86 1022.4
20260506102102 37 0 0.0 2.0 0.00 0.11 0.00 84 1022.4
20260506101557 37 0 1.0 2.0 0.00 0.11 0.00 84 1022.2
20260506101058 37 0 0.0 1.0 0.00 0.11 0.00 84 1022.2
20260506100558 37 0 0.0 0.0 0.00 0.11 0.00 83 1022.2
20260506100058 38 0 0.0 0.0 0.00 0.11 0.00 83 1022.3
20260506095601 38 0 0.0 1.0 0.00 0.12 0.00 83 1022.2
20260506095137 38 0 0.0 3.0 0.00 0.12 0.00 83 1022.2
20260506094556 38 0 0.0 3.0 0.00 0.12 0.00 83 1022.2
20260506094058 38 169 0.0 2.0 0.00 0.12 0.00 82 1022.2
20260506093558 39 0 0.0 1.0 0.00 0.12 0.00 82 1022.1
20260506093059 39 0 0.0 2.0 0.00 0.12 0.00 81 1022.1
20260506092600 39 226 0.0 2.0 0.00 0.12 0.00 82 1022.1
20260506092058 39 207 0.0 0.0 0.00 0.12 0.00 82 1022.1
20260506091556 39 0 0.0 0.0 0.00 0.12 0.00 82 1022.0
20260506091059 39 0 0.0 1.0 0.00 0.12 0.00 80 1022.0
20260506090558 40 0 0.0 1.0 0.00 0.12 0.00 80 1021.8
20260506090059 40 0 0.0 1.0 0.00 0.12 0.00 80 1021.8
20260506085558 40 0 0.0 2.0 0.00 0.12 0.00 80 1021.9
20260506085058 40 0 0.0 2.0 0.00 0.12 0.00 80 1021.8
20260506084559 40 161 0.0 3.0 0.00 0.12 0.00 82 1021.7
20260506084058 40 0 0.0 3.0 0.00 0.12 0.00 81 1021.7
20260506083559 40 151 0.0 3.0 0.00 0.12 0.00 82 1021.8
20260506083059 40 0 0.0 0.0 0.00 0.12 0.00 82 1021.9
20260506082558 40 0 0.0 0.0 0.00 0.12 0.00 81 1021.7
20260506082058 41 0 0.0 1.0 0.00 0.12 0.00 81 1021.7
20260506081600 41 0 0.0 2.0 0.00 0.12 0.00 81 1021.7
20260506081058 41 0 0.0 3.0 0.00 0.12 0.00 81 1021.8
20260506080558 41 0 0.0 3.0 0.00 0.12 0.00 82 1022.0
20260506080111 41 171 0.0 1.0 0.00 0.12 0.00 82 1022.2
20260506073100 41 0 0.0 0.0 0.00 0.12 0.00 80 1021.5
20260506072603 41 0 0.0 0.0 0.00 0.12 0.00 79 1021.3
20260506072059 41 0 0.0 1.0 0.00 0.12 0.00 79 1021.5
20260506071621 41 0 0.0 1.0 0.00 0.12 0.00 78 1021.5
20260506071058 42 0 0.0 1.0 0.00 0.12 0.00 77 1021.5
20260506070558 41 186 0.0 0.0 0.00 0.12 0.00 78 1021.5
20260506062058 42 0 0.0 0.0 0.00 0.12 0.12 73 1020.9
20260506061600 43 0 0.0 1.0 0.00 0.12 0.12 70 1020.8
20260506061059 43 0 0.0 1.0 0.00 0.12 0.12 68 1020.9
20260506060602 43 0 0.0 1.0 0.00 0.12 0.12 66 1020.9
20260506051058 45 243 0.0 4.0 0.00 0.12 0.12 63 1020.2
20260506050557 45 233 0.0 4.0 0.00 0.12 0.12 64 1020.2
20260506045056 45 198 0.0 2.0 0.00 0.12 0.12 66 1020.2
20260506044612 45 0 0.0 2.0 0.00 0.12 0.12 66 1020.2
20260506044056 45 0 0.0 4.0 0.00 0.12 0.12 66 1020.2
20260506043556 45 0 0.0 4.0 0.00 0.12 0.12 65 1020.0
20260506043059 45 222 0.0 1.0 0.00 0.12 0.12 65 1020.1
20260506042557 45 0 0.0 1.0 0.00 0.12 0.12 66 1019.9
20260506042056 45 0 0.0 2.0 0.00 0.12 0.12 65 1019.8
20260506041558 45 0 0.0 2.0 0.00 0.12 0.12 65 1019.7
20260506041056 45 0 0.0 2.0 0.00 0.12 0.12 65 1019.6
20260506040559 45 0 0.0 0.0 0.00 0.12 0.12 65 1019.6
20260506040059 45 0 0.0 2.0 0.00 0.12 0.12 65 1019.5
20260506035558 46 0 0.0 3.0 0.00 0.12 0.12 64 1019.6
20260506035057 45 150 0.0 3.0 0.00 0.12 0.12 65 1019.3
20260506034601 45 0 0.0 1.0 0.00 0.12 0.12 65 1019.3
20260506034057 46 0 0.0 1.0 0.00 0.12 0.12 64 1019.2
20260506033556 46 0 0.0 2.0 0.00 0.12 0.12 64 1019.0
20260506033059 46 236 0.0 2.0 0.00 0.12 0.12 64 1018.9
20260506032557 46 188 0.0 1.0 0.00 0.12 0.12 64 1018.8
20260506032057 46 0 0.0 1.0 0.00 0.12 0.12 64 1018.8
20260506031559 46 0 0.0 1.0 0.00 0.12 0.12 65 1018.6